TimeCDT,TemperatureF,Dew PointF,Humidity,Sea Level PressureIn,VisibilityMPH,Wind Direction,Wind SpeedMPH,Gust SpeedMPH,PrecipitationIn,Events,Conditions,WindDirDegrees,DateUTC
12:15 AM,30.2,21.2,69,30.11,10.0,NE,9.2,-,N/A,,Overcast,50,2013-03-24 05:15:00
12:35 AM,30.2,21.2,69,30.12,10.0,NE,8.1,-,N/A,,Overcast,50,2013-03-24 05:35:00
12:55 AM,30.2,21.2,69,30.11,10.0,NE,8.1,16.1,N/A,,Overcast,40,2013-03-24 05:55:00
1:15 AM,28.4,23.0,80,30.11,10.0,NE,6.9,-,N/A,,Overcast,50,2013-03-24 06:15:00
1:35 AM,30.2,19.4,64,30.11,10.0,NNE,6.9,-,N/A,,Overcast,30,2013-03-24 06:35:00
1:55 AM,30.2,21.2,69,30.11,10.0,NNE,6.9,-,N/A,,Overcast,20,2013-03-24 06:55:00
2:35 AM,28.4,21.2,74,30.10,10.0,NE,12.7,-,N/A,,Overcast,40,2013-03-24 07:35:00
2:55 AM,28.4,21.2,74,30.09,10.0,NE,9.2,-,N/A,,Overcast,50,2013-03-24 07:55:00
3:15 AM,28.4,19.4,69,30.09,10.0,ENE,9.2,-,N/A,,Overcast,70,2013-03-24 08:15:00
3:35 AM,28.4,21.2,74,30.09,10.0,ENE,11.5,-,N/A,,Overcast,70,2013-03-24 08:35:00
3:55 AM,28.4,21.2,74,30.08,10.0,ENE,9.2,-,N/A,,Overcast,60,2013-03-24 08:55:00
4:15 AM,28.4,19.4,69,30.08,10.0,ENE,9.2,-,N/A,,Overcast,70,2013-03-24 09:15:00
4:35 AM,26.6,21.2,80,30.08,10.0,ENE,12.7,-,N/A,,Overcast,60,2013-03-24 09:35:00
4:55 AM,26.6,19.4,74,30.08,10.0,NE,11.5,-,N/A,,Overcast,50,2013-03-24 09:55:00
5:15 AM,26.6,19.4,74,30.08,10.0,ENE,9.2,-,N/A,,Overcast,60,2013-03-24 10:15:00
5:35 AM,26.6,21.2,80,30.08,10.0,NE,6.9,-,N/A,,Overcast,50,2013-03-24 10:35:00
5:55 AM,26.6,21.2,80,30.07,10.0,NE,9.2,-,N/A,,Overcast,50,2013-03-24 10:55:00
6:15 AM,26.6,21.2,80,30.06,10.0,NNE,6.9,-,N/A,,Overcast,30,2013-03-24 11:15:00
6:35 AM,26.6,21.2,80,30.06,10.0,NNE,5.8,-,N/A,,Overcast,30,2013-03-24 11:35:00
6:55 AM,26.6,21.2,80,30.06,10.0,NNE,4.6,-,N/A,,Overcast,30,2013-03-24 11:55:00
7:15 AM,26.6,21.2,80,30.06,10.0,NNE,5.8,-,N/A,,Overcast,30,2013-03-24 12:15:00
7:35 AM,26.6,21.2,80,30.07,10.0,NE,4.6,-,N/A,,Overcast,40,2013-03-24 12:35:00
7:55 AM,26.6,21.2,80,30.06,10.0,NNE,5.8,-,N/A,,Overcast,20,2013-03-24 12:55:00
8:15 AM,26.6,19.4,74,30.06,10.0,NNE,5.8,-,N/A,,Overcast,30,2013-03-24 13:15:00
8:35 AM,28.4,19.4,69,30.06,10.0,NNE,5.8,-,N/A,,Overcast,20,2013-03-24 13:35:00
8:55 AM,28.4,19.4,69,30.05,10.0,NNE,6.9,-,N/A,,Overcast,30,2013-03-24 13:55:00
9:15 AM,28.4,21.2,74,30.05,10.0,NNE,6.9,-,N/A,,Overcast,30,2013-03-24 14:15:00
9:35 AM,28.4,21.2,74,30.03,10.0,NNE,6.9,-,N/A,,Overcast,30,2013-03-24 14:35:00
9:55 AM,28.4,21.2,74,30.03,10.0,NNE,6.9,-,N/A,,Overcast,30,2013-03-24 14:55:00
10:15 AM,30.2,23.0,75,30.02,10.0,ENE,12.7,-,N/A,,Overcast,70,2013-03-24 15:15:00
10:35 AM,30.2,24.8,80,30.02,10.0,ENE,17.3,23.0,N/A,,Overcast,70,2013-03-24 15:35:00
10:55 AM,30.2,24.8,80,30.01,10.0,ENE,21.9,-,N/A,,Overcast,60,2013-03-24 15:55:00
11:15 AM,30.2,24.8,80,30.01,10.0,ENE,18.4,21.9,N/A,,Partly Cloudy,60,2013-03-24 16:15:00
11:35 AM,30.2,24.8,80,30.00,10.0,ENE,16.1,23.0,N/A,,Scattered Clouds,60,2013-03-24 16:35:00
11:55 AM,30.2,24.8,80,30.00,10.0,ENE,16.1,23.0,N/A,,Overcast,60,2013-03-24 16:55:00
12:15 PM,32.0,24.8,75,29.99,10.0,East,21.9,27.6,N/A,,Overcast,80,2013-03-24 17:15:00
12:35 PM,32.0,24.8,75,29.98,10.0,ENE,19.6,26.5,N/A,,Overcast,60,2013-03-24 17:35:00
12:55 PM,32.0,26.6,80,29.98,10.0,ENE,19.6,28.8,N/A,,Scattered Clouds,60,2013-03-24 17:55:00
1:15 PM,32.0,26.6,80,29.97,10.0,ENE,21.9,-,N/A,,Mostly Cloudy,60,2013-03-24 18:15:00
1:35 PM,32.0,24.8,75,29.97,10.0,ENE,23.0,26.5,N/A,,Overcast,60,2013-03-24 18:35:00
1:55 PM,32.0,23.0,69,29.96,10.0,ENE,19.6,-,N/A,,Mostly Cloudy,70,2013-03-24 18:55:00
2:15 PM,32.0,23.0,69,29.96,10.0,ENE,17.3,23.0,N/A,,Partly Cloudy,70,2013-03-24 19:15:00
2:35 PM,32.0,24.8,75,29.94,10.0,East,18.4,-,N/A,,Clear,80,2013-03-24 19:35:00
2:55 PM,32.0,21.2,64,29.93,10.0,East,15.0,21.9,N/A,,Clear,80,2013-03-24 19:55:00
3:15 PM,32.0,21.2,64,29.92,10.0,East,15.0,21.9,N/A,,Mostly Cloudy,80,2013-03-24 20:15:00
3:35 PM,32.0,21.2,64,29.91,10.0,East,13.8,20.7,N/A,,Overcast,80,2013-03-24 20:35:00
3:55 PM,32.0,21.2,64,29.90,10.0,ENE,15.0,20.7,N/A,,Overcast,70,2013-03-24 20:55:00
4:15 PM,32.0,21.2,64,29.89,10.0,ENE,17.3,-,N/A,,Overcast,70,2013-03-24 21:15:00
4:35 PM,32.0,21.2,64,29.89,10.0,ENE,15.0,-,N/A,,Overcast,60,2013-03-24 21:35:00
4:55 PM,32.0,23.0,69,29.89,10.0,East,13.8,17.3,N/A,,Overcast,80,2013-03-24 21:55:00
5:15 PM,32.0,23.0,69,29.89,10.0,ENE,12.7,18.4,N/A,,Overcast,70,2013-03-24 22:15:00
5:35 PM,32.0,24.8,75,29.89,10.0,NE,8.1,-,N/A,,Overcast,50,2013-03-24 22:35:00
5:55 PM,33.8,19.4,56,29.89,10.0,NNE,11.5,-,N/A,,Scattered Clouds,20,2013-03-24 22:55:00
6:15 PM,32.0,19.4,60,29.88,10.0,North,12.7,17.3,N/A,,Partly Cloudy,10,2013-03-24 23:15:00
6:35 PM,30.2,19.4,64,29.89,10.0,NNE,13.8,19.6,N/A,,Scattered Clouds,20,2013-03-24 23:35:00
6:55 PM,30.2,19.4,64,29.89,10.0,NNE,13.8,17.3,N/A,,Scattered Clouds,20,2013-03-24 23:55:00
7:15 PM,30.2,19.4,64,29.90,10.0,NNE,12.7,16.1,N/A,,Overcast,20,2013-03-25 00:15:00
7:35 PM,30.2,19.4,64,29.90,10.0,NNE,11.5,16.1,N/A,,Overcast,30,2013-03-25 00:35:00
7:55 PM,30.2,19.4,64,29.91,10.0,NNE,11.5,19.6,N/A,,Overcast,30,2013-03-25 00:55:00
8:15 PM,28.4,19.4,69,29.92,10.0,NNE,11.5,-,N/A,,Mostly Cloudy,30,2013-03-25 01:15:00
8:35 PM,28.4,19.4,69,29.92,10.0,NNE,9.2,-,N/A,,Clear,20,2013-03-25 01:35:00
8:55 PM,28.4,17.6,64,29.92,10.0,North,12.7,19.6,N/A,,Clear,10,2013-03-25 01:55:00
9:15 PM,28.4,17.6,64,29.92,10.0,NNE,12.7,19.6,N/A,,Clear,20,2013-03-25 02:15:00
9:35 PM,28.4,17.6,64,29.92,10.0,North,11.5,17.3,N/A,,Clear,10,2013-03-25 02:35:00
9:55 PM,26.6,19.4,74,29.92,10.0,North,13.8,-,N/A,,Clear,10,2013-03-25 02:55:00
10:15 PM,26.6,19.4,74,29.92,10.0,North,11.5,17.3,N/A,,Clear,10,2013-03-25 03:15:00
10:35 PM,26.6,19.4,74,29.91,10.0,NNE,12.7,18.4,N/A,,Clear,20,2013-03-25 03:35:00
10:55 PM,26.6,19.4,74,29.91,10.0,North,12.7,19.6,N/A,,Clear,10,2013-03-25 03:55:00
11:15 PM,26.6,19.4,74,29.90,10.0,North,11.5,-,N/A,,Clear,10,2013-03-25 04:15:00
11:35 PM,26.6,19.4,74,29.90,10.0,North,12.7,17.3,N/A,,Clear,10,2013-03-25 04:35:00
11:55 PM,26.6,19.4,74,29.90,10.0,North,12.7,17.3,N/A,,Clear,360,2013-03-25 04:55:00